Time,TemperatureF,DewpointF,PressureIn,WindDirection,WindDirectionDegrees,WindSpeedMPH,WindSpeedGustMPH,Humidity,HourlyPrecipIn,Conditions,Clouds,dailyrainin,SoftwareType,DateUTC
2013-10-12 00:01:00,64.3,57.6,30.03,NE,48,7.0,11.0,79,0.00,,,0.00,WeatherTracker,2013-10-12 04:01:00,
2013-10-12 00:02:00,64.3,57.6,30.03,ENE,72,7.0,11.0,79,0.00,,,0.00,WeatherTracker,2013-10-12 04:02:00,
2013-10-12 00:04:00,64.3,57.6,30.03,ENE,59,3.0,12.0,79,0.00,,,0.00,WeatherTracker,2013-10-12 04:04:00,
2013-10-12 00:09:00,64.2,57.5,30.03,East,82,11.0,12.0,79,0.01,,,0.01,WeatherTracker,2013-10-12 04:09:00,
2013-10-12 00:14:00,64.2,57.5,30.03,East,86,11.0,11.0,79,0.01,,,0.01,WeatherTracker,2013-10-12 04:14:00,
2013-10-12 00:19:00,64.2,57.5,30.03,ENE,61,5.0,13.0,79,0.01,,,0.01,WeatherTracker,2013-10-12 04:19:00,
2013-10-12 00:24:00,64.0,57.4,30.03,ENE,64,6.0,13.0,79,0.01,,,0.01,WeatherTracker,2013-10-12 04:24:00,
2013-10-12 00:29:00,63.9,57.3,30.03,ENE,67,3.0,13.0,79,0.01,,,0.01,WeatherTracker,2013-10-12 04:29:00,
2013-10-12 00:34:00,63.9,57.6,30.03,NNE,32,6.0,11.0,80,0.01,,,0.01,WeatherTracker,2013-10-12 04:34:00,
2013-10-12 00:39:00,63.9,57.6,30.03,NE,56,9.0,11.0,80,0.01,,,0.01,WeatherTracker,2013-10-12 04:39:00,
2013-10-12 00:44:00,63.7,57.4,30.03,NE,34,5.0,13.0,80,0.01,,,0.01,WeatherTracker,2013-10-12 04:44:00,
2013-10-12 00:49:00,63.7,57.4,30.03,NE,46,7.0,13.0,80,0.01,,,0.01,WeatherTracker,2013-10-12 04:49:00,
2013-10-12 00:55:00,63.7,57.4,30.03,ENE,61,5.0,14.0,80,0.01,,,0.01,WeatherTracker,2013-10-12 04:55:00,
2013-10-12 01:00:00,63.7,57.4,30.03,ENE,65,11.0,14.0,80,0.01,,,0.01,WeatherTracker,2013-10-12 05:00:00,
2013-10-12 01:05:00,63.7,57.4,30.03,ENE,59,8.0,12.0,80,0.01,,,0.01,WeatherTracker,2013-10-12 05:05:00,
2013-10-12 01:10:00,63.7,57.4,30.03,North,7,8.0,13.0,80,0.00,,,0.01,WeatherTracker,2013-10-12 05:10:00,
2013-10-12 01:15:00,63.7,57.1,30.03,NE,49,4.0,13.0,79,0.00,,,0.01,WeatherTracker,2013-10-12 05:15:00,
2013-10-12 01:20:00,63.7,58.4,30.03,NE,42,4.0,12.0,83,0.00,,,0.01,WeatherTracker,2013-10-12 05:20:00,
2013-10-12 01:25:00,63.7,57.1,30.03,NNE,33,4.0,13.0,79,0.00,,,0.01,WeatherTracker,2013-10-12 05:25:00,
2013-10-12 01:30:00,63.7,56.7,30.03,NE,55,5.0,13.0,78,0.00,,,0.01,WeatherTracker,2013-10-12 05:30:00,
2013-10-12 01:35:00,63.9,56.5,30.03,NE,43,9.0,13.0,77,0.00,,,0.01,WeatherTracker,2013-10-12 05:35:00,
2013-10-12 01:40:00,64.0,56.3,30.03,NNE,30,6.0,14.0,76,0.00,,,0.01,WeatherTracker,2013-10-12 05:40:00,
2013-10-12 01:45:00,64.0,55.9,30.03,ENE,69,6.0,14.0,75,0.00,,,0.01,WeatherTracker,2013-10-12 05:45:00,
2013-10-12 01:50:00,64.0,55.5,30.03,NE,45,2.0,13.0,74,0.00,,,0.01,WeatherTracker,2013-10-12 05:50:00,
2013-10-12 01:55:00,64.0,55.5,30.03,ENE,66,9.0,12.0,74,0.00,,,0.01,WeatherTracker,2013-10-12 05:55:00,
2013-10-12 02:00:00,64.2,55.4,30.03,ENE,67,6.0,14.0,73,0.00,,,0.01,WeatherTracker,2013-10-12 06:00:00,
2013-10-12 02:05:00,64.2,55.0,30.03,NE,42,4.0,14.0,72,0.00,,,0.01,WeatherTracker,2013-10-12 06:05:00,
2013-10-12 02:10:00,64.0,54.8,30.03,ENE,59,14.0,14.0,72,0.00,,,0.01,WeatherTracker,2013-10-12 06:10:00,
2013-10-12 02:15:00,64.0,54.4,30.03,ENE,64,9.0,16.0,71,0.00,,,0.01,WeatherTracker,2013-10-12 06:15:00,
2013-10-12 02:20:00,64.0,54.4,30.03,NE,38,6.0,16.0,71,0.00,,,0.01,WeatherTracker,2013-10-12 06:20:00,
2013-10-12 02:25:00,63.9,54.3,30.03,NE,55,10.0,13.0,71,0.00,,,0.01,WeatherTracker,2013-10-12 06:25:00,
2013-10-12 02:31:00,63.9,54.3,30.04,East,84,6.0,12.0,71,0.00,,,0.01,WeatherTracker,2013-10-12 06:31:00,
2013-10-12 02:36:00,63.9,53.9,30.04,ENE,57,6.0,13.0,70,0.00,,,0.01,WeatherTracker,2013-10-12 06:36:00,
2013-10-12 02:41:00,63.9,54.3,30.04,NE,36,2.0,13.0,71,0.00,,,0.01,WeatherTracker,2013-10-12 06:41:00,
2013-10-12 02:46:00,63.7,54.1,30.04,NE,47,5.0,9.0,71,0.00,,,0.01,WeatherTracker,2013-10-12 06:46:00,
2013-10-12 02:51:00,63.7,53.7,30.04,NE,47,3.0,14.0,70,0.00,,,0.01,WeatherTracker,2013-10-12 06:51:00,
2013-10-12 02:56:00,63.7,53.7,30.04,ENE,64,4.0,14.0,70,0.01,,,0.02,WeatherTracker,2013-10-12 06:56:00,
2013-10-12 03:01:00,63.5,53.5,30.03,NE,55,10.0,12.0,70,0.01,,,0.02,WeatherTracker,2013-10-12 07:01:00,
2013-10-12 03:06:00,63.4,53.4,30.03,NE,42,3.0,12.0,70,0.01,,,0.02,WeatherTracker,2013-10-12 07:06:00,
2013-10-12 03:11:00,63.4,53.4,30.03,North,11,5.0,14.0,70,0.01,,,0.02,WeatherTracker,2013-10-12 07:11:00,
2013-10-12 03:16:00,63.2,53.2,30.04,ENE,63,9.0,14.0,70,0.01,,,0.02,WeatherTracker,2013-10-12 07:16:00,
2013-10-12 03:21:00,63.1,53.2,30.04,NE,40,5.0,11.0,70,0.01,,,0.02,WeatherTracker,2013-10-12 07:21:00,
2013-10-12 03:26:00,63.1,53.2,30.04,ENE,63,8.0,13.0,70,0.01,,,0.02,WeatherTracker,2013-10-12 07:26:00,
2013-10-12 03:31:00,63.1,52.8,30.04,NNE,22,3.0,13.0,69,0.01,,,0.02,WeatherTracker,2013-10-12 07:31:00,
2013-10-12 03:36:00,62.9,52.6,30.04,NE,46,11.0,12.0,69,0.01,,,0.02,WeatherTracker,2013-10-12 07:36:00,
2013-10-12 03:41:00,62.9,52.6,30.04,ENE,62,8.0,12.0,69,0.01,,,0.02,WeatherTracker,2013-10-12 07:41:00,
2013-10-12 03:46:00,62.7,52.0,30.04,NNE,29,1.0,12.0,68,0.01,,,0.02,WeatherTracker,2013-10-12 07:46:00,
2013-10-12 03:51:00,62.7,52.0,30.04,NE,36,5.0,11.0,68,0.01,,,0.02,WeatherTracker,2013-10-12 07:51:00,
2013-10-12 03:56:00,62.6,51.9,30.04,NE,47,3.0,9.0,68,0.00,,,0.02,WeatherTracker,2013-10-12 07:56:00,
2013-10-12 04:01:00,62.6,51.9,30.05,NNE,33,4.0,10.0,68,0.00,,,0.02,WeatherTracker,2013-10-12 08:01:00,
2013-10-12 04:06:00,62.3,51.6,30.05,ENE,59,6.0,10.0,68,0.00,,,0.02,WeatherTracker,2013-10-12 08:06:00,
2013-10-12 04:12:00,62.3,51.6,30.05,NE,56,5.0,11.0,68,0.00,,,0.02,WeatherTracker,2013-10-12 08:12:00,
2013-10-12 04:17:00,62.3,51.2,30.05,NE,51,7.0,15.0,67,0.00,,,0.02,WeatherTracker,2013-10-12 08:17:00,
2013-10-12 04:22:00,62.3,51.2,30.05,ENE,66,5.0,15.0,67,0.00,,,0.02,WeatherTracker,2013-10-12 08:22:00,
2013-10-12 04:27:00,62.3,51.2,30.05,NE,48,3.0,12.0,67,0.00,,,0.02,WeatherTracker,2013-10-12 08:27:00,
2013-10-12 04:32:00,62.1,51.0,30.06,ENE,59,5.0,10.0,67,0.00,,,0.02,WeatherTracker,2013-10-12 08:32:00,
2013-10-12 04:37:00,62.0,51.3,30.06,ENE,58,7.0,10.0,68,0.00,,,0.02,WeatherTracker,2013-10-12 08:37:00,
2013-10-12 04:42:00,62.0,50.9,30.06,NE,54,6.0,13.0,67,0.00,,,0.02,WeatherTracker,2013-10-12 08:42:00,
2013-10-12 04:47:00,62.0,50.9,30.06,NNE,12,6.0,13.0,67,0.00,,,0.02,WeatherTracker,2013-10-12 08:47:00,
2013-10-12 04:52:00,61.8,50.7,30.06,NNE,16,5.0,13.0,67,0.00,,,0.02,WeatherTracker,2013-10-12 08:52:00,
2013-10-12 04:57:00,61.8,50.3,30.06,NNE,22,4.0,13.0,66,0.00,,,0.02,WeatherTracker,2013-10-12 08:57:00,
2013-10-12 05:02:00,61.8,49.9,30.06,ENE,57,13.0,13.0,65,0.00,,,0.02,WeatherTracker,2013-10-12 09:02:00,
2013-10-12 05:07:00,61.6,49.7,30.06,NE,51,4.0,15.0,65,0.00,,,0.02,WeatherTracker,2013-10-12 09:07:00,
2013-10-12 05:12:00,61.5,50.0,30.06,North,350,3.0,15.0,66,0.00,,,0.02,WeatherTracker,2013-10-12 09:12:00,
2013-10-12 05:17:00,61.5,50.0,30.06,NE,37,5.0,9.0,66,0.00,,,0.02,WeatherTracker,2013-10-12 09:17:00,
2013-10-12 05:22:00,61.5,49.6,30.06,NE,41,12.0,12.0,65,0.00,,,0.02,WeatherTracker,2013-10-12 09:22:00,
2013-10-12 05:27:00,61.5,49.6,30.06,ENE,66,4.0,15.0,65,0.00,,,0.02,WeatherTracker,2013-10-12 09:27:00,
2013-10-12 05:32:00,61.5,49.6,30.07,NNE,32,2.0,15.0,65,0.00,,,0.02,WeatherTracker,2013-10-12 09:32:00,
2013-10-12 05:37:00,61.3,49.4,30.07,NNE,32,8.0,16.0,65,0.00,,,0.02,WeatherTracker,2013-10-12 09:37:00,
2013-10-12 05:42:00,61.3,49.0,30.07,NE,43,7.0,16.0,64,0.00,,,0.02,WeatherTracker,2013-10-12 09:42:00,
2013-10-12 05:47:00,61.3,48.6,30.07,NE,52,11.0,12.0,63,0.00,,,0.02,WeatherTracker,2013-10-12 09:47:00,
2013-10-12 05:53:00,61.3,49.0,30.07,NE,36,4.0,14.0,64,0.00,,,0.02,WeatherTracker,2013-10-12 09:53:00,
2013-10-12 05:58:00,61.3,49.0,30.07,NE,48,7.0,13.0,64,0.00,,,0.02,WeatherTracker,2013-10-12 09:58:00,
2013-10-12 06:03:00,61.3,48.6,30.06,NE,53,9.0,15.0,63,0.00,,,0.02,WeatherTracker,2013-10-12 10:03:00,
2013-10-12 06:08:00,61.3,48.6,30.06,ENE,64,4.0,15.0,63,0.00,,,0.02,WeatherTracker,2013-10-12 10:08:00,
2013-10-12 06:13:00,61.3,48.6,30.06,NE,53,4.0,12.0,63,0.00,,,0.02,WeatherTracker,2013-10-12 10:13:00,
2013-10-12 06:18:00,61.3,48.6,30.07,ENE,63,6.0,11.0,63,0.00,,,0.02,WeatherTracker,2013-10-12 10:18:00,
2013-10-12 06:23:00,61.3,48.6,30.07,NE,49,4.0,11.0,63,0.00,,,0.02,WeatherTracker,2013-10-12 10:23:00,
2013-10-12 06:28:00,61.3,48.6,30.07,NE,37,7.0,10.0,63,0.00,,,0.02,WeatherTracker,2013-10-12 10:28:00,
2013-10-12 06:33:00,61.3,48.6,30.07,NE,45,4.0,9.0,63,0.00,,,0.02,WeatherTracker,2013-10-12 10:33:00,
2013-10-12 06:38:00,61.2,48.9,30.07,NE,49,10.0,11.0,64,0.00,,,0.02,WeatherTracker,2013-10-12 10:38:00,
2013-10-12 06:43:00,61.2,48.5,30.07,NNE,26,5.0,12.0,63,0.00,,,0.02,WeatherTracker,2013-10-12 10:43:00,
2013-10-12 06:48:00,61.2,48.5,30.07,NE,34,4.0,12.0,63,0.00,,,0.02,WeatherTracker,2013-10-12 10:48:00,
2013-10-12 06:53:00,61.2,48.1,30.07,NE,39,6.0,12.0,62,0.00,,,0.02,WeatherTracker,2013-10-12 10:53:00,
2013-10-12 06:58:00,61.2,48.1,30.07,NE,46,4.0,12.0,62,0.00,,,0.02,WeatherTracker,2013-10-12 10:58:00,
2013-10-12 07:03:00,61.0,48.3,30.08,NE,42,4.0,10.0,63,0.00,,,0.02,WeatherTracker,2013-10-12 11:03:00,
2013-10-12 07:09:00,60.9,47.8,30.08,NE,47,6.0,9.0,62,0.00,,,0.02,WeatherTracker,2013-10-12 11:09:00,
2013-10-12 07:14:00,60.9,47.8,30.08,NE,43,4.0,10.0,62,0.00,,,0.02,WeatherTracker,2013-10-12 11:14:00,
2013-10-12 07:19:00,60.9,47.8,30.08,NE,41,3.0,10.0,62,0.00,,,0.02,WeatherTracker,2013-10-12 11:19:00,
2013-10-12 07:24:00,60.7,47.6,30.08,NE,49,4.0,7.0,62,0.00,,,0.02,WeatherTracker,2013-10-12 11:24:00,
2013-10-12 07:29:00,60.7,47.6,30.09,NE,52,4.0,10.0,62,0.00,,,0.02,WeatherTracker,2013-10-12 11:29:00,
2013-10-12 07:34:00,60.5,47.4,30.09,NE,48,5.0,10.0,62,0.00,,,0.02,WeatherTracker,2013-10-12 11:34:00,
2013-10-12 07:39:00,60.5,47.4,30.09,NE,38,2.0,6.0,62,0.00,,,0.02,WeatherTracker,2013-10-12 11:39:00,
2013-10-12 07:44:00,60.4,47.3,30.09,East,99,6.0,7.0,62,0.00,,,0.02,WeatherTracker,2013-10-12 11:44:00,
2013-10-12 07:49:00,60.4,47.3,30.09,ENE,60,5.0,10.0,62,0.00,,,0.02,WeatherTracker,2013-10-12 11:49:00,
2013-10-12 07:54:00,60.4,47.3,30.09,NE,48,6.0,10.0,62,0.00,,,0.02,WeatherTracker,2013-10-12 11:54:00,
2013-10-12 07:59:00,60.2,47.1,30.10,NE,54,3.0,10.0,62,0.00,,,0.02,WeatherTracker,2013-10-12 11:59:00,
2013-10-12 08:04:00,60.2,47.1,30.10,NE,45,6.0,11.0,62,0.00,,,0.02,WeatherTracker,2013-10-12 12:04:00,
2013-10-12 08:09:00,60.1,47.0,30.10,NNE,25,5.0,12.0,62,0.00,,,0.02,WeatherTracker,2013-10-12 12:09:00,
2013-10-12 08:14:00,60.1,47.0,30.11,NE,34,3.0,12.0,62,0.00,,,0.02,WeatherTracker,2013-10-12 12:14:00,
2013-10-12 08:19:00,60.1,47.0,30.11,NE,38,2.0,10.0,62,0.00,,,0.02,WeatherTracker,2013-10-12 12:19:00,
2013-10-12 08:24:00,60.1,47.0,30.11,NNW,345,5.0,12.0,62,0.00,,,0.02,WeatherTracker,2013-10-12 12:24:00,
2013-10-12 08:29:00,60.1,47.0,30.10,NE,37,4.0,12.0,62,0.00,,,0.02,WeatherTracker,2013-10-12 12:29:00,
2013-10-12 08:35:00,60.2,47.1,30.10,NE,50,4.0,11.0,62,0.00,,,0.02,WeatherTracker,2013-10-12 12:35:00,
2013-10-12 08:40:00,60.2,46.7,30.10,NE,54,4.0,11.0,61,0.00,,,0.02,WeatherTracker,2013-10-12 12:40:00,
2013-10-12 08:45:00,60.4,46.4,30.11,NE,36,4.0,13.0,60,0.00,,,0.02,WeatherTracker,2013-10-12 12:45:00,
2013-10-12 08:50:00,60.4,46.4,30.11,ENE,57,2.0,13.0,60,0.00,,,0.02,WeatherTracker,2013-10-12 12:50:00,
2013-10-12 08:55:00,60.5,46.1,30.11,North,2,6.0,12.0,59,0.00,,,0.02,WeatherTracker,2013-10-12 12:55:00,
2013-10-12 09:00:00,60.5,46.1,30.11,NNE,18,6.0,12.0,59,0.00,,,0.02,WeatherTracker,2013-10-12 13:00:00,
2013-10-12 09:05:00,60.5,45.6,30.11,ENE,63,6.0,12.0,58,0.00,,,0.02,WeatherTracker,2013-10-12 13:05:00,
2013-10-12 09:10:00,60.7,45.8,30.11,NNE,24,10.0,12.0,58,0.00,,,0.02,WeatherTracker,2013-10-12 13:10:00,
2013-10-12 09:15:00,60.9,46.0,30.12,NE,48,2.0,11.0,58,0.00,,,0.02,WeatherTracker,2013-10-12 13:15:00,
2013-10-12 09:20:00,61.0,46.6,30.12,NE,45,8.0,11.0,59,0.00,,,0.02,WeatherTracker,2013-10-12 13:20:00,
2013-10-12 09:25:00,61.0,46.1,30.12,NE,37,5.0,11.0,58,0.00,,,0.02,WeatherTracker,2013-10-12 13:25:00,
2013-10-12 09:30:00,61.3,46.4,30.12,NE,36,5.0,11.0,58,0.00,,,0.02,WeatherTracker,2013-10-12 13:30:00,
2013-10-12 09:35:00,61.6,46.2,30.12,NNE,22,3.0,10.0,57,0.00,,,0.02,WeatherTracker,2013-10-12 13:35:00,
2013-10-12 09:40:00,62.0,46.6,30.12,NE,38,10.0,13.0,57,0.00,,,0.02,WeatherTracker,2013-10-12 13:40:00,
2013-10-12 09:45:00,62.3,46.9,30.12,NNE,28,7.0,13.0,57,0.00,,,0.02,WeatherTracker,2013-10-12 13:45:00,
2013-10-12 09:50:00,62.4,46.5,30.12,NNE,30,6.0,13.0,56,0.00,,,0.02,WeatherTracker,2013-10-12 13:50:00,
2013-10-12 09:55:00,62.6,48.5,30.12,NE,55,3.0,14.0,60,0.00,,,0.02,WeatherTracker,2013-10-12 13:55:00,
2013-10-12 10:00:00,62.6,47.1,30.13,NE,34,4.0,14.0,57,0.00,,,0.02,WeatherTracker,2013-10-12 14:00:00,
2013-10-12 10:05:00,62.7,46.8,30.13,NNE,18,11.0,12.0,56,0.00,,,0.02,WeatherTracker,2013-10-12 14:05:00,
2013-10-12 10:11:00,63.1,47.6,30.13,NE,52,8.0,15.0,57,0.00,,,0.02,WeatherTracker,2013-10-12 14:11:00,
2013-10-12 10:16:00,63.4,48.4,30.12,NE,55,10.0,15.0,58,0.00,,,0.02,WeatherTracker,2013-10-12 14:16:00,
2013-10-12 10:21:00,63.9,48.8,30.12,NE,48,6.0,15.0,58,0.00,,,0.02,WeatherTracker,2013-10-12 14:21:00,
2013-10-12 10:26:00,64.5,48.4,30.12,NNE,30,7.0,15.0,56,0.00,,,0.02,WeatherTracker,2013-10-12 14:26:00,
2013-10-12 10:31:00,65.0,48.9,30.12,NE,55,10.0,16.0,56,0.00,,,0.02,WeatherTracker,2013-10-12 14:31:00,
2013-10-12 10:36:00,65.2,49.1,30.12,North,7,3.0,16.0,56,0.00,,,0.02,WeatherTracker,2013-10-12 14:36:00,
2013-10-12 10:41:00,65.5,48.4,30.12,ENE,58,7.0,17.0,54,0.00,,,0.02,WeatherTracker,2013-10-12 14:41:00,
2013-10-12 10:46:00,65.6,48.5,30.13,NE,36,14.0,17.0,54,0.00,,,0.02,WeatherTracker,2013-10-12 14:46:00,
2013-10-12 10:51:00,65.3,49.2,30.13,ENE,68,8.0,16.0,56,0.00,,,0.02,WeatherTracker,2013-10-12 14:51:00,
2013-10-12 10:56:00,65.3,49.7,30.13,NNE,26,6.0,17.0,57,0.00,,,0.02,WeatherTracker,2013-10-12 14:56:00,
2013-10-12 11:01:00,65.5,49.4,30.14,ENE,63,9.0,17.0,56,0.00,,,0.02,WeatherTracker,2013-10-12 15:01:00,
2013-10-12 11:06:00,65.5,49.9,30.14,ENE,58,8.0,16.0,57,0.00,,,0.02,WeatherTracker,2013-10-12 15:06:00,
2013-10-12 11:11:00,65.5,49.9,30.14,NNW,345,11.0,16.0,57,0.00,,,0.02,WeatherTracker,2013-10-12 15:11:00,
2013-10-12 11:16:00,65.5,49.9,30.14,ENE,58,9.0,15.0,57,0.00,,,0.02,WeatherTracker,2013-10-12 15:16:00,
2013-10-12 11:21:00,65.5,49.9,30.14,NE,44,12.0,15.0,57,0.00,,,0.02,WeatherTracker,2013-10-12 15:21:00,
2013-10-12 11:26:00,65.5,49.4,30.14,ENE,58,5.0,14.0,56,0.00,,,0.02,WeatherTracker,2013-10-12 15:26:00,
2013-10-12 11:31:00,65.8,51.1,30.14,NE,47,4.0,12.0,59,0.00,,,0.02,WeatherTracker,2013-10-12 15:31:00,
2013-10-12 11:36:00,66.0,50.8,30.14,ENE,59,5.0,10.0,58,0.00,,,0.02,WeatherTracker,2013-10-12 15:36:00,
2013-10-12 11:41:00,65.8,50.6,30.14,NNE,21,4.0,16.0,58,0.00,,,0.02,WeatherTracker,2013-10-12 15:41:00,
2013-10-12 11:46:00,65.6,50.9,30.14,NE,43,4.0,16.0,59,0.00,,,0.02,WeatherTracker,2013-10-12 15:46:00,
2013-10-12 11:52:00,65.6,50.9,30.14,ENE,76,3.0,13.0,59,0.00,,,0.02,WeatherTracker,2013-10-12 15:52:00,
2013-10-12 11:57:00,65.8,51.1,30.14,NE,49,5.0,12.0,59,0.00,,,0.02,WeatherTracker,2013-10-12 15:57:00,
2013-10-12 12:02:00,66.0,51.3,30.14,ENE,66,7.0,12.0,59,0.00,,,0.02,WeatherTracker,2013-10-12 16:02:00,
2013-10-12 12:07:00,66.4,51.6,30.14,NNE,20,5.0,12.0,59,0.00,,,0.02,WeatherTracker,2013-10-12 16:07:00,
2013-10-12 12:12:00,66.9,52.6,30.14,East,86,16.0,16.0,60,0.00,,,0.02,WeatherTracker,2013-10-12 16:12:00,
2013-10-12 12:17:00,66.6,52.3,30.13,East,82,7.0,18.0,60,0.00,,,0.02,WeatherTracker,2013-10-12 16:17:00,
2013-10-12 12:22:00,66.8,52.0,30.13,ENE,57,7.0,20.0,59,0.00,,,0.02,WeatherTracker,2013-10-12 16:22:00,
2013-10-12 12:27:00,67.1,52.3,30.13,NE,55,9.0,20.0,59,0.00,,,0.02,WeatherTracker,2013-10-12 16:27:00,
2013-10-12 12:32:00,67.4,52.6,30.13,East,82,4.0,15.0,59,0.00,,,0.02,WeatherTracker,2013-10-12 16:32:00,
2013-10-12 12:37:00,67.1,52.3,30.13,ENE,58,5.0,18.0,59,0.00,,,0.02,WeatherTracker,2013-10-12 16:37:00,
2013-10-12 12:42:00,67.1,52.7,30.13,ENE,77,9.0,18.0,60,0.00,,,0.02,WeatherTracker,2013-10-12 16:42:00,
2013-10-12 12:47:00,67.1,53.2,30.13,East,84,7.0,16.0,61,0.00,,,0.02,WeatherTracker,2013-10-12 16:47:00,
2013-10-12 12:52:00,67.3,52.5,30.13,East,83,11.0,19.0,59,0.00,,,0.02,WeatherTracker,2013-10-12 16:52:00,
2013-10-12 12:57:00,67.4,52.6,30.13,ENE,70,7.0,19.0,59,0.00,,,0.02,WeatherTracker,2013-10-12 16:57:00,
2013-10-12 13:03:00,67.6,52.8,30.13,ENE,63,10.0,17.0,59,0.00,,,0.02,WeatherTracker,2013-10-12 17:03:00,
2013-10-12 13:08:00,67.8,53.9,30.13,ENE,59,5.0,17.0,61,0.00,,,0.02,WeatherTracker,2013-10-12 17:08:00,
2013-10-12 13:13:00,68.1,53.2,30.13,ENE,78,14.0,22.0,59,0.00,,,0.02,WeatherTracker,2013-10-12 17:13:00,
2013-10-12 13:18:00,67.9,53.5,30.13,ENE,78,13.0,22.0,60,0.00,,,0.02,WeatherTracker,2013-10-12 17:18:00,
2013-10-12 13:23:00,67.9,53.5,30.13,ENE,74,6.0,20.0,60,0.00,,,0.02,WeatherTracker,2013-10-12 17:23:00,
2013-10-12 13:28:00,67.9,53.0,30.13,ENE,65,15.0,18.0,59,0.00,,,0.02,WeatherTracker,2013-10-12 17:28:00,
2013-10-12 13:33:00,67.9,53.5,30.13,ENE,70,5.0,16.0,60,0.00,,,0.02,WeatherTracker,2013-10-12 17:33:00,
2013-10-12 13:38:00,67.8,53.9,30.13,East,79,10.0,18.0,61,0.00,,,0.02,WeatherTracker,2013-10-12 17:38:00,
2013-10-12 13:43:00,67.8,53.9,30.13,East,88,7.0,18.0,61,0.00,,,0.02,WeatherTracker,2013-10-12 17:43:00,
2013-10-12 13:48:00,67.6,54.1,30.13,East,82,9.0,17.0,62,0.00,,,0.02,WeatherTracker,2013-10-12 17:48:00,
2013-10-12 13:53:00,67.8,54.3,30.13,East,80,6.0,16.0,62,0.00,,,0.02,WeatherTracker,2013-10-12 17:53:00,
2013-10-12 13:58:00,68.1,54.1,30.13,ENE,68,10.0,17.0,61,0.00,,,0.02,WeatherTracker,2013-10-12 17:58:00,
2013-10-12 14:03:00,68.3,54.8,30.13,ESE,109,7.0,17.0,62,0.00,,,0.02,WeatherTracker,2013-10-12 18:03:00,
2013-10-12 14:08:00,68.1,54.1,30.13,ESE,115,11.0,17.0,61,0.00,,,0.02,WeatherTracker,2013-10-12 18:08:00,
2013-10-12 14:13:00,68.1,56.3,30.13,East,95,12.0,18.0,66,0.00,,,0.02,WeatherTracker,2013-10-12 18:13:00,
2013-10-12 14:18:00,67.9,54.8,30.13,East,83,16.0,19.0,63,0.00,,,0.02,WeatherTracker,2013-10-12 18:18:00,
2013-10-12 14:23:00,68.4,55.7,30.13,East,80,6.0,19.0,64,0.00,,,0.02,WeatherTracker,2013-10-12 18:23:00,
2013-10-12 14:28:00,68.4,55.3,30.13,East,93,17.0,21.0,63,0.00,,,0.02,WeatherTracker,2013-10-12 18:28:00,
2013-10-12 14:33:00,69.1,56.4,30.12,East,86,15.0,21.0,64,0.00,,,0.02,WeatherTracker,2013-10-12 18:33:00,
2013-10-12 14:38:00,69.1,56.0,30.12,East,88,6.0,21.0,63,0.00,,,0.02,WeatherTracker,2013-10-12 18:38:00,
2013-10-12 14:43:00,69.4,56.7,30.12,East,79,9.0,19.0,64,0.00,,,0.02,WeatherTracker,2013-10-12 18:43:00,
2013-10-12 14:48:00,69.4,56.7,30.12,NE,36,7.0,19.0,64,0.00,,,0.02,WeatherTracker,2013-10-12 18:48:00,
2013-10-12 14:53:00,69.6,56.9,30.12,NE,45,10.0,21.0,64,0.00,,,0.02,WeatherTracker,2013-10-12 18:53:00,
2013-10-12 14:58:00,69.4,57.1,30.12,ENE,70,10.0,21.0,65,0.00,,,0.02,WeatherTracker,2013-10-12 18:58:00,
2013-10-12 15:03:00,69.4,56.7,30.12,ENE,61,6.0,23.0,64,0.00,,,0.02,WeatherTracker,2013-10-12 19:03:00,
2013-10-12 15:09:00,69.1,56.4,30.12,ENE,70,13.0,25.0,64,0.00,,,0.02,WeatherTracker,2013-10-12 19:09:00,
2013-10-12 15:14:00,69.3,57.0,30.13,East,95,11.0,24.0,65,0.00,,,0.02,WeatherTracker,2013-10-12 19:14:00,
2013-10-12 15:19:00,69.4,57.1,30.13,East,95,11.0,21.0,65,0.00,,,0.02,WeatherTracker,2013-10-12 19:19:00,
2013-10-12 15:24:00,68.9,56.2,30.13,East,85,12.0,25.0,64,0.00,,,0.02,WeatherTracker,2013-10-12 19:24:00,
2013-10-12 15:29:00,68.9,55.8,30.13,NE,49,14.0,25.0,63,0.00,,,0.02,WeatherTracker,2013-10-12 19:29:00,
2013-10-12 15:34:00,68.8,55.7,30.13,East,94,10.0,26.0,63,0.00,,,0.02,WeatherTracker,2013-10-12 19:34:00,
2013-10-12 15:39:00,68.8,56.1,30.13,ENE,62,12.0,26.0,64,0.00,,,0.02,WeatherTracker,2013-10-12 19:39:00,
2013-10-12 15:44:00,68.6,55.9,30.14,East,98,19.0,25.0,64,0.00,,,0.02,WeatherTracker,2013-10-12 19:44:00,
2013-10-12 15:49:00,68.4,56.2,30.14,North,1,13.0,25.0,65,0.00,,,0.02,WeatherTracker,2013-10-12 19:49:00,
2013-10-12 15:54:00,68.4,56.2,30.14,ENE,77,9.0,23.0,65,0.00,,,0.02,WeatherTracker,2013-10-12 19:54:00,
2013-10-12 15:59:00,68.4,56.2,30.14,ENE,68,14.0,25.0,65,0.00,,,0.02,WeatherTracker,2013-10-12 19:59:00,
2013-10-12 16:04:00,68.3,56.1,30.14,East,82,12.0,25.0,65,0.00,,,0.02,WeatherTracker,2013-10-12 20:04:00,
2013-10-12 16:09:00,68.1,55.9,30.14,East,86,11.0,22.0,65,0.00,,,0.02,WeatherTracker,2013-10-12 20:09:00,
2013-10-12 16:14:00,67.9,56.1,30.14,East,85,17.0,19.0,66,0.00,,,0.02,WeatherTracker,2013-10-12 20:14:00,
2013-10-12 16:19:00,67.9,56.1,30.14,ENE,78,4.0,19.0,66,0.00,,,0.02,WeatherTracker,2013-10-12 20:19:00,
2013-10-12 16:24:00,67.6,55.4,30.14,ENE,66,8.0,20.0,65,0.00,,,0.02,WeatherTracker,2013-10-12 20:24:00,
2013-10-12 16:29:00,67.6,54.1,30.14,ENE,78,13.0,24.0,62,0.00,,,0.02,WeatherTracker,2013-10-12 20:29:00,
2013-10-12 16:34:00,67.6,53.7,30.14,ENE,71,11.0,24.0,61,0.00,,,0.02,WeatherTracker,2013-10-12 20:34:00,
2013-10-12 16:39:00,67.8,54.3,30.14,ENE,74,5.0,23.0,62,0.00,,,0.02,WeatherTracker,2013-10-12 20:39:00,
2013-10-12 16:44:00,68.1,53.7,30.14,East,91,16.0,21.0,60,0.00,,,0.02,WeatherTracker,2013-10-12 20:44:00,
2013-10-12 16:49:00,68.3,52.0,30.14,East,91,20.0,24.0,56,0.00,,,0.02,WeatherTracker,2013-10-12 20:49:00,
2013-10-12 16:54:00,68.3,50.5,30.14,NE,54,14.0,24.0,53,0.00,,,0.02,WeatherTracker,2013-10-12 20:54:00,
2013-10-12 16:59:00,67.9,49.6,30.15,NE,47,10.0,22.0,52,0.00,,,0.02,WeatherTracker,2013-10-12 20:59:00,
2013-10-12 17:05:00,67.6,49.9,30.15,East,101,16.0,20.0,53,0.00,,,0.02,WeatherTracker,2013-10-12 21:05:00,
2013-10-12 17:10:00,67.1,49.4,30.15,ENE,59,5.0,21.0,53,0.00,,,0.02,WeatherTracker,2013-10-12 21:10:00,
2013-10-12 17:15:00,66.8,50.1,30.16,East,93,15.0,21.0,55,0.00,,,0.02,WeatherTracker,2013-10-12 21:15:00,
2013-10-12 17:20:00,66.4,50.2,30.16,East,82,10.0,15.0,56,0.00,,,0.02,WeatherTracker,2013-10-12 21:20:00,
2013-10-12 17:25:00,66.3,50.1,30.16,ENE,65,16.0,21.0,56,0.00,,,0.02,WeatherTracker,2013-10-12 21:25:00,
2013-10-12 17:30:00,66.1,50.4,30.16,NE,56,9.0,21.0,57,0.00,,,0.02,WeatherTracker,2013-10-12 21:30:00,
2013-10-12 17:35:00,66.0,51.3,30.16,ENE,70,8.0,19.0,59,0.00,,,0.02,WeatherTracker,2013-10-12 21:35:00,
2013-10-12 17:40:00,65.6,50.9,30.16,East,83,11.0,20.0,59,0.00,,,0.02,WeatherTracker,2013-10-12 21:40:00,
2013-10-12 17:45:00,65.5,51.7,30.16,East,80,8.0,20.0,61,0.00,,,0.02,WeatherTracker,2013-10-12 21:45:00,
2013-10-12 17:50:00,65.3,52.4,30.16,ENE,65,10.0,15.0,63,0.00,,,0.02,WeatherTracker,2013-10-12 21:50:00,
2013-10-12 17:55:00,65.0,52.1,30.16,East,80,9.0,18.0,63,0.00,,,0.02,WeatherTracker,2013-10-12 21:55:00,
2013-10-12 18:00:00,64.8,52.8,30.17,East,100,12.0,18.0,65,0.00,,,0.02,WeatherTracker,2013-10-12 22:00:00,
2013-10-12 18:05:00,64.7,52.2,30.17,ENE,61,11.0,17.0,64,0.00,,,0.02,WeatherTracker,2013-10-12 22:05:00,
2013-10-12 18:10:00,64.5,52.5,30.17,East,89,10.0,17.0,65,0.00,,,0.02,WeatherTracker,2013-10-12 22:10:00,
2013-10-12 18:15:00,64.3,52.3,30.17,ENE,78,8.0,22.0,65,0.00,,,0.02,WeatherTracker,2013-10-12 22:15:00,
2013-10-12 18:20:00,64.2,52.6,30.17,East,98,7.0,22.0,66,0.00,,,0.02,WeatherTracker,2013-10-12 22:20:00,
2013-10-12 18:25:00,64.0,52.8,30.17,ESE,116,9.0,22.0,67,0.00,,,0.02,WeatherTracker,2013-10-12 22:25:00,
2013-10-12 18:30:00,63.7,52.9,30.17,East,82,11.0,20.0,68,0.00,,,0.02,WeatherTracker,2013-10-12 22:30:00,
2013-10-12 18:36:00,63.5,53.1,30.17,ENE,68,6.0,23.0,69,0.00,,,0.02,WeatherTracker,2013-10-12 22:36:00,
2013-10-12 18:41:00,63.4,53.4,30.17,East,94,2.0,23.0,70,0.00,,,0.02,WeatherTracker,2013-10-12 22:41:00,
2013-10-12 18:46:00,63.2,53.6,30.17,ENE,69,10.0,18.0,71,0.00,,,0.02,WeatherTracker,2013-10-12 22:46:00,
2013-10-12 18:51:00,63.1,53.5,30.17,ENE,74,11.0,17.0,71,0.00,,,0.02,WeatherTracker,2013-10-12 22:51:00,
2013-10-12 18:56:00,63.1,53.5,30.17,ESE,111,16.0,16.0,71,0.00,,,0.02,WeatherTracker,2013-10-12 22:56:00,
2013-10-12 19:01:00,63.1,53.9,30.18,ENE,71,10.0,19.0,72,0.00,,,0.02,WeatherTracker,2013-10-12 23:01:00,
2013-10-12 19:06:00,63.1,53.9,30.18,East,93,10.0,21.0,72,0.00,,,0.02,WeatherTracker,2013-10-12 23:06:00,
2013-10-12 19:11:00,63.1,54.3,30.18,East,88,9.0,21.0,73,0.00,,,0.02,WeatherTracker,2013-10-12 23:11:00,
2013-10-12 19:16:00,63.1,54.7,30.18,East,83,10.0,21.0,74,0.00,,,0.02,WeatherTracker,2013-10-12 23:16:00,
2013-10-12 19:21:00,63.1,54.7,30.18,East,86,9.0,22.0,74,0.00,,,0.02,WeatherTracker,2013-10-12 23:21:00,
2013-10-12 19:26:00,62.9,54.5,30.18,ENE,78,8.0,22.0,74,0.00,,,0.02,WeatherTracker,2013-10-12 23:26:00,
2013-10-12 19:31:00,62.7,54.3,30.19,ENE,78,7.0,22.0,74,0.00,,,0.02,WeatherTracker,2013-10-12 23:31:00,
2013-10-12 19:36:00,62.7,54.3,30.19,ENE,74,12.0,17.0,74,0.00,,,0.02,WeatherTracker,2013-10-12 23:36:00,
2013-10-12 19:41:00,62.9,54.5,30.19,ENE,67,12.0,21.0,74,0.00,,,0.02,WeatherTracker,2013-10-12 23:41:00,
2013-10-12 19:46:00,62.9,54.5,30.19,ENE,59,6.0,21.0,74,0.00,,,0.02,WeatherTracker,2013-10-12 23:46:00,
2013-10-12 19:51:00,62.9,54.1,30.19,East,92,13.0,21.0,73,0.00,,,0.02,WeatherTracker,2013-10-12 23:51:00,
2013-10-12 19:56:00,62.9,54.1,30.19,East,81,24.0,24.0,73,0.00,,,0.02,WeatherTracker,2013-10-12 23:56:00,
2013-10-12 20:01:00,62.9,53.7,30.19,ESE,118,12.0,27.0,72,0.00,,,0.02,WeatherTracker,2013-10-13 00:01:00,
2013-10-12 20:06:00,62.7,53.9,30.19,East,82,13.0,27.0,73,0.00,,,0.02,WeatherTracker,2013-10-13 00:06:00,
2013-10-12 20:12:00,62.7,53.5,30.19,ENE,64,13.0,24.0,72,0.00,,,0.02,WeatherTracker,2013-10-13 00:12:00,
2013-10-12 20:17:00,62.7,53.9,30.20,East,80,13.0,23.0,73,0.00,,,0.02,WeatherTracker,2013-10-13 00:17:00,
2013-10-12 20:22:00,62.7,53.9,30.20,SE,127,13.0,21.0,73,0.00,,,0.02,WeatherTracker,2013-10-13 00:22:00,
2013-10-12 20:27:00,62.7,53.9,30.20,East,94,8.0,22.0,73,0.00,,,0.02,WeatherTracker,2013-10-13 00:27:00,
2013-10-12 20:32:00,62.6,53.8,30.20,ENE,74,12.0,23.0,73,0.00,,,0.02,WeatherTracker,2013-10-13 00:32:00,
2013-10-12 20:37:00,62.6,54.2,30.20,East,80,11.0,23.0,74,0.00,,,0.02,WeatherTracker,2013-10-13 00:37:00,
2013-10-12 20:42:00,62.6,54.2,30.20,NE,51,16.0,22.0,74,0.00,,,0.02,WeatherTracker,2013-10-13 00:42:00,
2013-10-12 20:47:00,62.6,54.2,30.20,ENE,69,6.0,22.0,74,0.00,,,0.02,WeatherTracker,2013-10-13 00:47:00,
2013-10-12 20:52:00,62.6,54.2,30.20,NE,40,11.0,21.0,74,0.00,,,0.02,WeatherTracker,2013-10-13 00:52:00,
2013-10-12 20:57:00,62.6,54.6,30.20,East,88,4.0,21.0,75,0.00,,,0.02,WeatherTracker,2013-10-13 00:57:00,
2013-10-12 21:02:00,62.6,54.6,30.21,ENE,77,13.0,18.0,75,0.00,,,0.02,WeatherTracker,2013-10-13 01:02:00,
2013-10-12 21:07:00,62.6,54.6,30.21,NNE,23,5.0,18.0,75,0.00,,,0.02,WeatherTracker,2013-10-13 01:07:00,
2013-10-12 21:12:00,62.6,54.9,30.21,East,83,12.0,19.0,76,0.00,,,0.02,WeatherTracker,2013-10-13 01:12:00,
2013-10-12 21:17:00,62.6,54.9,30.21,ENE,60,7.0,20.0,76,0.00,,,0.02,WeatherTracker,2013-10-13 01:17:00,
2013-10-12 21:23:00,62.6,55.3,30.21,ENE,71,11.0,22.0,77,0.00,,,0.02,WeatherTracker,2013-10-13 01:23:00,
2013-10-12 21:28:00,62.6,55.3,30.21,East,84,10.0,22.0,77,0.00,,,0.02,WeatherTracker,2013-10-13 01:28:00,
2013-10-12 21:33:00,62.4,55.1,30.21,East,91,10.0,17.0,77,0.00,,,0.02,WeatherTracker,2013-10-13 01:33:00,
2013-10-12 21:38:00,62.4,55.1,30.21,East,84,8.0,17.0,77,0.00,,,0.02,WeatherTracker,2013-10-13 01:38:00,
2013-10-12 21:43:00,62.4,55.4,30.21,ENE,60,10.0,17.0,78,0.00,,,0.02,WeatherTracker,2013-10-13 01:43:00,
2013-10-12 21:48:00,62.3,55.7,30.21,ENE,76,9.0,17.0,79,0.00,,,0.02,WeatherTracker,2013-10-13 01:48:00,
2013-10-12 21:53:00,62.3,55.7,30.21,East,81,12.0,18.0,79,0.00,,,0.02,WeatherTracker,2013-10-13 01:53:00,
2013-10-12 21:58:00,62.3,55.3,30.21,ENE,59,14.0,18.0,78,0.00,,,0.02,WeatherTracker,2013-10-13 01:58:00,
2013-10-12 22:03:00,62.3,55.3,30.21,ENE,78,15.0,21.0,78,0.00,,,0.02,WeatherTracker,2013-10-13 02:03:00,
2013-10-12 22:08:00,62.3,55.3,30.21,ENE,57,7.0,22.0,78,0.00,,,0.02,WeatherTracker,2013-10-13 02:08:00,
2013-10-12 22:13:00,62.3,55.3,30.21,ENE,70,12.0,22.0,78,0.00,,,0.02,WeatherTracker,2013-10-13 02:13:00,
2013-10-12 22:18:00,62.3,55.3,30.22,East,84,10.0,19.0,78,0.00,,,0.02,WeatherTracker,2013-10-13 02:18:00,
2013-10-12 22:23:00,62.1,55.5,30.22,NE,55,6.0,19.0,79,0.00,,,0.02,WeatherTracker,2013-10-13 02:23:00,
2013-10-12 22:28:00,62.3,55.3,30.22,ENE,63,13.0,23.0,78,0.00,,,0.02,WeatherTracker,2013-10-13 02:28:00,
2013-10-12 22:33:00,62.3,55.3,30.22,East,81,8.0,23.0,78,0.00,,,0.02,WeatherTracker,2013-10-13 02:33:00,
2013-10-12 22:38:00,62.1,55.2,30.22,ENE,72,6.0,19.0,78,0.00,,,0.02,WeatherTracker,2013-10-13 02:38:00,
2013-10-12 22:43:00,62.0,55.1,30.22,ENE,65,11.0,19.0,78,0.00,,,0.02,WeatherTracker,2013-10-13 02:43:00,
2013-10-12 22:48:00,62.0,55.1,30.22,NE,51,12.0,24.0,78,0.00,,,0.02,WeatherTracker,2013-10-13 02:48:00,
2013-10-12 22:53:00,62.0,55.4,30.22,East,96,7.0,24.0,79,0.00,,,0.02,WeatherTracker,2013-10-13 02:53:00,
2013-10-12 22:58:00,61.8,55.2,30.22,East,83,12.0,17.0,79,0.00,,,0.02,WeatherTracker,2013-10-13 02:58:00,
2013-10-12 23:03:00,61.8,55.2,30.22,ENE,70,6.0,18.0,79,0.00,,,0.02,WeatherTracker,2013-10-13 03:03:00,
2013-10-12 23:08:00,61.8,55.2,30.22,ENE,78,10.0,21.0,79,0.00,,,0.02,WeatherTracker,2013-10-13 03:08:00,
2013-10-12 23:14:00,61.6,55.0,30.22,ENE,76,14.0,21.0,79,0.00,,,0.02,WeatherTracker,2013-10-13 03:14:00,
2013-10-12 23:19:00,61.6,55.4,30.22,East,86,7.0,20.0,80,0.00,,,0.02,WeatherTracker,2013-10-13 03:19:00,
2013-10-12 23:24:00,61.6,55.0,30.22,NE,52,13.0,18.0,79,0.00,,,0.02,WeatherTracker,2013-10-13 03:24:00,
2013-10-12 23:29:00,61.6,55.0,30.22,ENE,75,8.0,18.0,79,0.00,,,0.02,WeatherTracker,2013-10-13 03:29:00,
2013-10-12 23:34:00,61.6,55.0,30.22,East,81,6.0,22.0,79,0.00,,,0.02,WeatherTracker,2013-10-13 03:34:00,
2013-10-12 23:39:00,61.6,55.0,30.22,ENE,57,9.0,22.0,79,0.00,,,0.02,WeatherTracker,2013-10-13 03:39:00,
2013-10-12 23:44:00,61.6,55.0,30.22,East,94,10.0,20.0,79,0.00,,,0.02,WeatherTracker,2013-10-13 03:44:00,
2013-10-12 23:49:00,61.6,54.7,30.22,NE,51,9.0,22.0,78,0.00,,,0.02,WeatherTracker,2013-10-13 03:49:00,
2013-10-12 23:54:00,61.6,54.7,30.22,ENE,75,6.0,22.0,78,0.00,,,0.02,WeatherTracker,2013-10-13 03:54:00,
2013-10-12 23:59:00,61.6,54.7,30.22,ENE,70,10.0,20.0,78,0.00,,,0.02,WeatherTracker,2013-10-13 03:59:00,